Погода в Ельниках

Россия / Республика Мордовия     54°37′21″N   43°52′14″E
темп.,
°C
ветер,
м/с
пор.,
м/с
влажн.,
%
обл.,
%
осадки,
мм/ч
давл.,
гПа
погр.,
м
11 апреля, вс
вс1100:00+1ссв2497100 0.0 102785
03:00+1с3595100 0.0 1027166
06:000ссв36928 0.0 1029150
09:00+5ссв4668100 0.0 1030355
12:00+9св4552100 0.0 1030702
15:00+10св554787 0.0 1031739
18:00+8св4863100 0.0 1031367
21:00+5св4973100 0.0 1033277
12 апреля, пн
пн1200:00+3всв4107783 0.0 1033255
03:00+4всв51284100 0.1 1034351
06:00+4всв61384100 0.0 1034381
09:00+6всв7118498 0.0 1034442
12:00+9в71082100 0.0 1033553
15:00+11в6777100 0.0 1033632
18:00+10в588599 0.0 1031301
21:00+8в4109554 0.0 1032200
13 апреля, вт
вт1300:00+8вюв369185 0.0 103176
03:00+8юв4687100 0.0 103175
06:00+7ююв4887100 0.0 1031118
09:00+13ююв595749 0.0 1031387
12:00+17ююв574065 0.0 1030946
15:00+19ю563444 0.0 10291329
18:00+16ююв36495 0.0 1028103
21:00+11ююв475810 0.0 102899
14 апреля, ср
ср1400:00+9ююв476560 0.0 102889
03:00+8ююв347068 0.0 102844
06:00+7ююв347578 0.0 102762
09:00+13ююв465835 0.0 1027325
12:00+18ююв454319 0.0 10261029
15:00+19ююв453632 0.0 10241426
18:00+16юв344566 0.0 102368
21:00+11ююв3355100 0.0 102328
15 апреля, чт
чт1500:00+10ююв3461100 0.0 102250
03:00+8ююв346862 0.0 102244
06:00+7ююв3471100 0.0 102157
09:00+12ююв3557100 0.0 1020301
12:00+17ю344147 0.0 1019967
15:00+18ю2333100 0.0 10171490
18:00+16юз114420 0.0 101611
21:00+13юв11495 0.0 101610